COSMOS 1975

Satellite information

Favourite Embed

Satellite Type and Status

PAYLOADIN ORBIT

Key statistics

Satellite COSMOS 1975 at a glance.

Uptime

13417

Days in orbit

Revolutions

≈ 15.2

Per day

Orbit

LEO

Low Earth Orbit

Inclination

82.5

Latest

Satellite identification and parameters

Extended collection of information and parameters for COSMOS 1975.

Object identification

Identified? True

Debris? False

Object name: COSMOS 1975

International designator: 1988-093A

Object number (NORAD): 19573

Object ID (CCSDS): 19573

Country: COMMONWEALTH OF INDEPENDENT STATES (CIS)

Current information (Y/N): Y

RCS size: LARGE

Orbital parameters

Period: 94.534 minutes

Inclination: 82.5223 deg

SMA: 6874.152 km

Apoapsis: 504.22 km

Periapsis: 487.813 km

RAAN: 4.6585 deg

Eccentricy: 0.0011934

Argument of periapsis: 327.9075 deg

Mean anomaly: 32.1433 deg

Mean motion: 15.2326019 rev/day

Mean motion (dot): 0.00005899 rev/day2

B* drag term: 0.00024724 1/REarth

Two-line elements (TLE)

Creation date: July 5, 2025, 10:36 p.m.

Reference frame: TEME

Reference center: EARTH

Epoch: July 5, 2025, 3:22 p.m. UTC

TLE line 0: 0 COSMOS 1975

TLE line 1: 1 19573U 88093A 25186.64094161 .00005899 00000-0 24724-3 0 9999

TLE line 2: 2 19573 82.5223 4.6585 0011934 327.9075 32.1433 15.23260190 2915

Live tracking on map

Real-time ground track for satellite COSMOS 1975.

In-orbit conjunctions

A list of the most updated potential collisions computed for object COSMOS 1975.

Target Orbit TCA Probability of collision Miss distance Type
CZ-2C R/B SSO 2025-06-28 22:57:01 0.0002376028 101.0 (m) ROCKET BODY
CZ-6A DEB LEO 2025-06-26 08:41:40 0.0001303326 207.0 (m) DEBRIS
COSMOS 2535 DEB SSO 2025-06-03 23:00:45 0.0002078066 213.0 (m) DEBRIS
CZ-6A DEB LEO 2025-04-28 02:58:17 0.0002873956 716.0 (m) DEBRIS
COSMOS 249 DEB * LEO 2025-04-10 02:01:02 0.0001367002 710.0 (m) DEBRIS

Associated space launch

Tselina-D satellites provided detailed observation of radio sources detected by the smaller Tselina-O satellites as part of the Tselina ELINT system.

COSMOS 1975 was lifted into orbit during the mission ‘Tsiklon-3 | Tselina-D 66’, on board a Tsiklon-3 space rocket.

The launch took place on Oct. 11, 1988, 8:02 a.m. from 32/1.

For more information about the launch, click the button.

Launch to space Tsiklon-3 | Tselina-D 66
Tsiklon-3 | Tselina-D 66

Agency: N/A

Status: Launch Successful

Launch date: Oct. 11, 1988, 8:02 a.m. UTC

Rocket: Tsiklon-3

Launch pad: 32/1

Location: Plesetsk Cosmodrome, Russian Federation

...

Latest news about this satellite

There are no fresh news available about this satellite. Check back as we update our databases every day.


Newsletter sign-up

Weekly statistics, charts and insights to help you stay on top of the space industry.